| time (UTC) | temp F | wind direction | speed MPH | gust MPH | rain 1hr in | rain 24hr in | rain mn in | humidity % | barometer mb |
| 20260507060503 | 45 | 254 | 0.0 | 2.0 | 0.00 | 0.00 | 0.00 | 59 | 1014.2 |
| 20260507060003 | 45 | 254 | 0.0 | 2.0 | 0.00 | 0.00 | 0.00 | 59 | 1014.3 |
| 20260507055503 | 46 | 254 | 0.0 | 2.0 | 0.00 | 0.00 | 0.00 | 58 | 1014.2 |
| 20260507055003 | 46 | 0 | 0.0 | 0.0 | 0.00 | 0.00 | 0.00 | 58 | 1014.3 |
| 20260507054503 | 46 | 0 | 0.0 | 0.0 | 0.00 | 0.00 | 0.00 | 57 | 1014.4 |
| 20260507054003 | 46 | 254 | 0.0 | 1.0 | 0.00 | 0.00 | 0.00 | 57 | 1014.3 |
| 20260507053503 | 46 | 254 | 0.0 | 3.0 | 0.00 | 0.00 | 0.00 | 57 | 1014.4 |
| 20260507053004 | 46 | 254 | 1.0 | 3.0 | 0.00 | 0.00 | 0.00 | 56 | 1014.4 |
| 20260507052503 | 46 | 254 | 1.0 | 2.0 | 0.00 | 0.00 | 0.00 | 57 | 1014.3 |
| 20260507052003 | 47 | 257 | 1.0 | 3.0 | 0.00 | 0.00 | 0.00 | 55 | 1014.4 |
| 20260507051713 | 47 | 257 | 1.0 | 3.0 | 0.00 | 0.00 | 0.00 | 57 | 1014.3 |
| 20260507051214 | 47 | 259 | 0.0 | 2.0 | 0.00 | 0.00 | 0.00 | 56 | 1014.4 |
| 20260507050503 | 47 | 259 | 0.0 | 3.0 | 0.00 | 0.00 | 0.00 | 56 | 1014.4 |
| 20260507050005 | 47 | 260 | 1.0 | 2.0 | 0.00 | 0.00 | 0.00 | 56 | 1014.4 |
| 20260507045713 | 47 | 260 | 1.0 | 2.0 | 0.00 | 0.00 | 0.00 | 54 | 1014.4 |
| 20260507045003 | 47 | 260 | 0.0 | 1.0 | 0.00 | 0.00 | 0.00 | 53 | 1014.4 |
| 20260507044503 | 47 | 260 | 0.0 | 2.0 | 0.00 | 0.00 | 0.00 | 53 | 1014.4 |
| 20260507044003 | 47 | 261 | 0.0 | 2.0 | 0.00 | 0.00 | 0.00 | 53 | 1014.5 |
| 20260507043503 | 47 | 261 | 0.0 | 2.0 | 0.00 | 0.00 | 0.00 | 50 | 1014.5 |
| 20260507043003 | 47 | 0 | 0.0 | 0.0 | 0.00 | 0.00 | 0.00 | 53 | 1014.6 |
| 20260507042503 | 47 | 0 | 0.0 | 0.0 | 0.00 | 0.00 | 0.00 | 55 | 1014.6 |
| 20260507042003 | 47 | 0 | 0.0 | 1.0 | 0.00 | 0.00 | 0.00 | 54 | 1014.7 |
| 20260507041503 | 47 | 261 | 0.0 | 1.0 | 0.00 | 0.00 | 0.00 | 52 | 1014.7 |
| 20260507041004 | 47 | 261 | 0.0 | 1.0 | 0.00 | 0.00 | 0.00 | 52 | 1014.7 |
| 20260507040503 | 47 | 0 | 0.0 | 0.0 | 0.00 | 0.00 | 0.00 | 53 | 1014.7 |
| 20260507040003 | 47 | 0 | 0.0 | 0.0 | 0.00 | 0.00 | 0.00 | 55 | 1014.7 |
| 20260507035503 | 47 | 261 | 0.0 | 2.0 | 0.00 | 0.00 | 0.00 | 53 | 1014.8 |
| 20260507035003 | 47 | 261 | 0.0 | 2.0 | 0.00 | 0.00 | 0.00 | 52 | 1014.8 |
| 20260507034503 | 48 | 0 | 0.0 | 0.0 | 0.00 | 0.00 | 0.00 | 54 | 1014.9 |
| 20260507034003 | 48 | 0 | 0.0 | 0.0 | 0.00 | 0.00 | 0.00 | 52 | 1014.9 |
| 20260507033712 | 48 | 261 | 0.0 | 1.0 | 0.00 | 0.00 | 0.00 | 51 | 1014.9 |
| 20260507033003 | 48 | 261 | 0.0 | 1.0 | 0.00 | 0.00 | 0.00 | 51 | 1015.0 |
| 20260507032504 | 48 | 261 | 1.0 | 3.0 | 0.00 | 0.00 | 0.00 | 51 | 1015.0 |
| 20260507032003 | 49 | 261 | 1.0 | 3.0 | 0.00 | 0.00 | 0.00 | 49 | 1015.1 |
| 20260507031503 | 49 | 261 | 0.0 | 3.0 | 0.00 | 0.00 | 0.00 | 47 | 1015.0 |
| 20260507031003 | 49 | 261 | 0.0 | 1.0 | 0.00 | 0.00 | 0.00 | 46 | 1015.0 |
| 20260507030503 | 49 | 261 | 0.0 | 1.0 | 0.00 | 0.00 | 0.00 | 46 | 1015.0 |
| 20260507030213 | 50 | 261 | 0.0 | 1.0 | 0.00 | 0.00 | 0.00 | 48 | 1015.0 |
| 20260507025503 | 50 | 0 | 0.0 | 0.0 | 0.00 | 0.00 | 0.00 | 45 | 1015.0 |
| 20260507025003 | 50 | 0 | 0.0 | 0.0 | 0.00 | 0.00 | 0.00 | 44 | 1014.9 |
| 20260507024503 | 50 | 261 | 0.0 | 1.0 | 0.00 | 0.00 | 0.00 | 43 | 1014.9 |
| 20260507024213 | 50 | 261 | 0.0 | 1.0 | 0.00 | 0.00 | 0.00 | 44 | 1014.9 |
| 20260507023503 | 50 | 261 | 0.0 | 1.0 | 0.00 | 0.00 | 0.00 | 43 | 1014.9 |
| 20260507023003 | 51 | 261 | 0.0 | 1.0 | 0.00 | 0.00 | 0.00 | 43 | 1014.8 |
| 20260507022503 | 51 | 261 | 0.0 | 1.0 | 0.00 | 0.00 | 0.00 | 44 | 1014.7 |
| 20260507022003 | 51 | 261 | 0.0 | 1.0 | 0.00 | 0.00 | 0.00 | 41 | 1014.8 |
| 20260507021503 | 51 | 0 | 0.0 | 1.0 | 0.00 | 0.00 | 0.00 | 42 | 1014.7 |
| 20260507021003 | 52 | 0 | 0.0 | 0.0 | 0.00 | 0.00 | 0.00 | 41 | 1014.7 |
| 20260507020714 | 52 | 0 | 0.0 | 0.0 | 0.00 | 0.00 | 0.00 | 40 | 1014.7 |
| 20260507020003 | 52 | 0 | 0.0 | 0.0 | 0.00 | 0.00 | 0.00 | 43 | 1014.6 |
| 20260507015503 | 53 | 0 | 0.0 | 0.0 | 0.00 | 0.00 | 0.00 | 39 | 1014.7 |
| 20260507015003 | 53 | 0 | 0.0 | 0.0 | 0.00 | 0.00 | 0.00 | 38 | 1014.7 |
| 20260507014714 | 54 | 0 | 0.0 | 0.0 | 0.00 | 0.00 | 0.00 | 38 | 1014.7 |
| 20260507014212 | 54 | 0 | 0.0 | 0.0 | 0.00 | 0.00 | 0.00 | 37 | 1014.7 |
| 20260507013503 | 54 | 0 | 0.0 | 0.0 | 0.00 | 0.00 | 0.00 | 38 | 1014.5 |
| 20260507013003 | 55 | 0 | 0.0 | 0.0 | 0.00 | 0.00 | 0.00 | 35 | 1014.5 |
| 20260507012503 | 55 | 261 | 0.0 | 2.0 | 0.00 | 0.00 | 0.00 | 34 | 1014.6 |
| 20260507012003 | 56 | 261 | 0.0 | 2.0 | 0.00 | 0.00 | 0.00 | 36 | 1014.6 |
| 20260507011503 | 56 | 0 | 0.0 | 0.0 | 0.00 | 0.00 | 0.00 | 33 | 1014.6 |
| 20260507010503 | 57 | 261 | 0.0 | 2.0 | 0.00 | 0.00 | 0.00 | 31 | 1014.6 |
| 20260507010004 | 58 | 261 | 0.0 | 2.0 | 0.00 | 0.00 | 0.00 | 31 | 1014.6 |
| 20260507005503 | 58 | 261 | 0.0 | 2.0 | 0.00 | 0.00 | 0.00 | 30 | 1014.6 |
| 20260507005003 | 58 | 259 | 0.0 | 3.0 | 0.00 | 0.00 | 0.00 | 30 | 1014.6 |
| 20260507004003 | 59 | 256 | 2.0 | 6.0 | 0.00 | 0.00 | 0.00 | 28 | 1014.5 |
| 20260507003503 | 59 | 270 | 1.0 | 6.0 | 0.00 | 0.00 | 0.00 | 30 | 1014.6 |
| 20260507003003 | 59 | 293 | 2.0 | 6.0 | 0.00 | 0.00 | 0.00 | 29 | 1014.7 |
| 20260507002503 | 59 | 312 | 1.0 | 3.0 | 0.00 | 0.00 | 0.00 | 28 | 1014.8 |
| 20260507002003 | 59 | 301 | 1.0 | 3.0 | 0.00 | 0.00 | 0.00 | 28 | 1014.7 |
| 20260507001503 | 59 | 296 | 2.0 | 7.0 | 0.00 | 0.00 | 0.00 | 30 | 1014.7 |
| 20260507001003 | 59 | 290 | 2.0 | 7.0 | 0.00 | 0.00 | 0.00 | 27 | 1014.7 |
| 20260507000713 | 60 | 288 | 2.0 | 5.0 | 0.00 | 0.00 | 0.00 | 30 | 1014.8 |
| 20260507000004 | 60 | 263 | 1.0 | 7.0 | 0.00 | 0.00 | 0.00 | 27 | 1014.8 |
| 20260506235503 | 60 | 278 | 2.0 | 9.0 | 0.00 | 0.00 | 0.00 | 29 | 1014.9 |
| 20260506235003 | 60 | 281 | 2.0 | 9.0 | 0.00 | 0.00 | 0.00 | 28 | 1015.0 |
| 20260506234503 | 60 | 267 | 1.0 | 4.0 | 0.00 | 0.00 | 0.00 | 28 | 1015.1 |
| 20260506234003 | 60 | 262 | 2.0 | 7.0 | 0.00 | 0.00 | 0.00 | 27 | 1015.1 |
| 20260506233503 | 60 | 261 | 3.0 | 8.0 | 0.00 | 0.00 | 0.00 | 28 | 1015.2 |
| 20260506233003 | 60 | 259 | 4.0 | 11.0 | 0.00 | 0.00 | 0.00 | 26 | 1015.2 |
| 20260506232503 | 60 | 257 | 4.0 | 11.0 | 0.00 | 0.00 | 0.00 | 27 | 1015.2 |
| 20260506232005 | 60 | 265 | 3.0 | 11.0 | 0.00 | 0.00 | 0.00 | 27 | 1015.2 |
| 20260506231503 | 60 | 253 | 4.0 | 9.0 | 0.00 | 0.00 | 0.00 | 27 | 1015.2 |
| 20260506231003 | 61 | 240 | 4.0 | 9.0 | 0.00 | 0.00 | 0.00 | 26 | 1015.2 |
| 20260506230503 | 61 | 241 | 4.0 | 12.0 | 0.00 | 0.00 | 0.00 | 27 | 1015.4 |
| 20260506230004 | 62 | 249 | 4.0 | 12.0 | 0.00 | 0.00 | 0.00 | 26 | 1015.4 |
| 20260506225503 | 62 | 251 | 3.0 | 7.0 | 0.00 | 0.00 | 0.00 | 29 | 1015.5 |
| 20260506225004 | 62 | 278 | 3.0 | 9.0 | 0.00 | 0.00 | 0.00 | 28 | 1015.6 |
| 20260506224503 | 61 | 291 | 3.0 | 12.0 | 0.00 | 0.00 | 0.00 | 29 | 1015.6 |
| 20260506224003 | 61 | 270 | 3.0 | 12.0 | 0.00 | 0.00 | 0.00 | 28 | 1015.5 |
| 20260506223712 | 61 | 266 | 3.0 | 12.0 | 0.00 | 0.00 | 0.00 | 26 | 1015.5 |
| 20260506223003 | 60 | 248 | 2.0 | 6.0 | 0.00 | 0.00 | 0.00 | 29 | 1015.7 |
| 20260506222503 | 61 | 247 | 2.0 | 5.0 | 0.00 | 0.00 | 0.00 | 28 | 1015.7 |
| 20260506222003 | 61 | 265 | 2.0 | 7.0 | 0.00 | 0.00 | 0.00 | 29 | 1015.8 |
| 20260506221504 | 61 | 296 | 2.0 | 7.0 | 0.00 | 0.00 | 0.00 | 33 | 1015.8 |
| 20260506221003 | 61 | 279 | 2.0 | 8.0 | 0.00 | 0.00 | 0.00 | 33 | 1015.9 |
| 20260506220503 | 61 | 255 | 3.0 | 8.0 | 0.00 | 0.00 | 0.00 | 27 | 1016.0 |
| 20260506220003 | 61 | 273 | 3.0 | 10.0 | 0.00 | 0.00 | 0.00 | 32 | 1016.0 |
| 20260506215503 | 61 | 269 | 5.0 | 15.0 | 0.00 | 0.00 | 0.00 | 27 | 1016.0 |
| 20260506215005 | 62 | 263 | 6.0 | 15.0 | 0.00 | 0.00 | 0.00 | 26 | 1016.1 |
| 20260506214503 | 62 | 274 | 4.0 | 12.0 | 0.00 | 0.00 | 0.00 | 28 | 1016.2 |
| 20260506214003 | 62 | 284 | 2.0 | 8.0 | 0.00 | 0.00 | 0.00 | 34 | 1016.0 |
| 20260506213714 | 61 | 276 | 3.0 | 12.0 | 0.00 | 0.00 | 0.00 | 31 | 1016.1 |
| 20260506213003 | 61 | 291 | 4.0 | 12.0 | 0.00 | 0.00 | 0.00 | 28 | 1016.2 |
| 20260506212503 | 62 | 284 | 3.0 | 11.0 | 0.00 | 0.00 | 0.00 | 32 | 1016.4 |
| 20260506212003 | 62 | 271 | 4.0 | 9.0 | 0.00 | 0.00 | 0.00 | 29 | 1016.2 |
| 20260506211503 | 62 | 288 | 4.0 | 11.0 | 0.00 | 0.00 | 0.00 | 31 | 1016.3 |
| 20260506211213 | 61 | 283 | 4.0 | 11.0 | 0.00 | 0.00 | 0.00 | 30 | 1016.3 |
| 20260506210503 | 61 | 315 | 3.0 | 10.0 | 0.00 | 0.00 | 0.00 | 31 | 1016.4 |
| 20260506210003 | 60 | 285 | 4.0 | 12.0 | 0.00 | 0.00 | 0.00 | 29 | 1016.6 |
| 20260506205503 | 60 | 263 | 3.0 | 12.0 | 0.00 | 0.00 | 0.00 | 33 | 1016.5 |
| 20260506205003 | 60 | 305 | 2.0 | 5.0 | 0.00 | 0.00 | 0.00 | 38 | 1016.6 |
| 20260506204503 | 59 | 286 | 2.0 | 7.0 | 0.00 | 0.00 | 0.00 | 30 | 1016.7 |
| 20260506204003 | 60 | 303 | 3.0 | 7.0 | 0.00 | 0.00 | 0.00 | 29 | 1016.7 |
| 20260506203503 | 60 | 331 | 3.0 | 11.0 | 0.00 | 0.00 | 0.00 | 32 | 1016.7 |
| 20260506203213 | 60 | 331 | 3.0 | 11.0 | 0.00 | 0.00 | 0.00 | 33 | 1016.7 |
| 20260506202503 | 61 | 273 | 4.0 | 11.0 | 0.00 | 0.00 | 0.00 | 34 | 1016.9 |
| 20260506202003 | 60 | 279 | 4.0 | 11.0 | 0.00 | 0.00 | 0.00 | 31 | 1016.9 |
| 20260506201503 | 60 | 298 | 3.0 | 11.0 | 0.00 | 0.00 | 0.00 | 30 | 1017.0 |
| 20260506201003 | 60 | 265 | 3.0 | 11.0 | 0.00 | 0.00 | 0.00 | 32 | 1017.0 |
| 20260506200503 | 61 | 253 | 5.0 | 12.0 | 0.00 | 0.00 | 0.00 | 29 | 1017.1 |
| 20260506200003 | 61 | 254 | 6.0 | 12.0 | 0.00 | 0.00 | 0.00 | 30 | 1017.1 |
| 20260506195713 | 61 | 255 | 6.0 | 16.0 | 0.00 | 0.00 | 0.00 | 32 | 1017.1 |
| 20260506195003 | 62 | 255 | 5.0 | 16.0 | 0.00 | 0.00 | 0.00 | 29 | 1017.2 |
| 20260506194504 | 61 | 269 | 4.0 | 12.0 | 0.00 | 0.00 | 0.00 | 33 | 1017.2 |
| 20260506194003 | 60 | 296 | 4.0 | 17.0 | 0.00 | 0.00 | 0.00 | 40 | 1017.3 |
| 20260506193503 | 60 | 262 | 4.0 | 17.0 | 0.00 | 0.00 | 0.00 | 31 | 1017.3 |
| 20260506193003 | 60 | 254 | 4.0 | 16.0 | 0.00 | 0.00 | 0.00 | 34 | 1017.2 |
| 20260506192503 | 59 | 265 | 4.0 | 11.0 | 0.00 | 0.00 | 0.00 | 35 | 1017.4 |
| 20260506192003 | 59 | 256 | 5.0 | 11.0 | 0.00 | 0.00 | 0.00 | 32 | 1017.3 |
| 20260506191503 | 59 | 254 | 5.0 | 12.0 | 0.00 | 0.00 | 0.00 | 34 | 1017.3 |
| 20260506191214 | 59 | 257 | 5.0 | 12.0 | 0.00 | 0.00 | 0.00 | 36 | 1017.2 |
| 20260506190503 | 59 | 288 | 5.0 | 14.0 | 0.00 | 0.00 | 0.00 | 36 | 1017.3 |
| 20260506190003 | 59 | 298 | 5.0 | 14.0 | 0.00 | 0.00 | 0.00 | 33 | 1017.5 |
| 20260506185503 | 59 | 300 | 4.0 | 12.0 | 0.00 | 0.00 | 0.00 | 34 | 1017.3 |
| 20260506185003 | 58 | 288 | 4.0 | 12.0 | 0.00 | 0.00 | 0.00 | 36 | 1017.6 |
| 20260506184504 | 59 | 260 | 5.0 | 15.0 | 0.00 | 0.00 | 0.00 | 32 | 1017.6 |
| 20260506184214 | 59 | 258 | 6.0 | 15.0 | 0.00 | 0.00 | 0.00 | 34 | 1017.7 |
| 20260506183503 | 60 | 264 | 6.0 | 16.0 | 0.00 | 0.00 | 0.00 | 36 | 1017.7 |
| 20260506183004 | 59 | 263 | 5.0 | 15.0 | 0.00 | 0.00 | 0.00 | 35 | 1017.7 |
| 20260506182503 | 58 | 281 | 4.0 | 14.0 | 0.00 | 0.00 | 0.00 | 35 | 1017.8 |
| 20260506182003 | 58 | 300 | 4.0 | 14.0 | 0.00 | 0.00 | 0.00 | 35 | 1017.8 |
| 20260506181503 | 58 | 301 | 3.0 | 11.0 | 0.00 | 0.00 | 0.00 | 34 | 1017.8 |
| 20260506181214 | 58 | 300 | 2.0 | 7.0 | 0.00 | 0.00 | 0.00 | 33 | 1017.9 |
| 20260506180503 | 57 | 294 | 2.0 | 8.0 | 0.00 | 0.00 | 0.00 | 36 | 1018.0 |
| 20260506180214 | 56 | 287 | 3.0 | 8.0 | 0.00 | 0.00 | 0.00 | 38 | 1018.0 |
| 20260506175503 | 57 | 264 | 5.0 | 12.0 | 0.00 | 0.00 | 0.00 | 36 | 1018.1 |
| 20260506175003 | 56 | 258 | 4.0 | 12.0 | 0.00 | 0.00 | 0.00 | 38 | 1018.1 |
| 20260506174504 | 56 | 246 | 3.0 | 8.0 | 0.00 | 0.00 | 0.00 | 38 | 1018.3 |
| 20260506174003 | 56 | 244 | 3.0 | 8.0 | 0.00 | 0.00 | 0.00 | 36 | 1018.3 |
| 20260506173503 | 56 | 261 | 3.0 | 8.0 | 0.00 | 0.00 | 0.00 | 38 | 1018.3 |
| 20260506173003 | 56 | 286 | 4.0 | 9.0 | 0.00 | 0.00 | 0.00 | 37 | 1018.4 |
| 20260506172503 | 56 | 269 | 4.0 | 10.0 | 0.00 | 0.00 | 0.00 | 35 | 1018.4 |
| 20260506172003 | 56 | 257 | 4.0 | 17.0 | 0.00 | 0.00 | 0.00 | 36 | 1018.4 |
| 20260506171503 | 56 | 276 | 4.0 | 17.0 | 0.00 | 0.00 | 0.00 | 35 | 1018.5 |
| 20260506171004 | 56 | 278 | 3.0 | 8.0 | 0.00 | 0.00 | 0.00 | 38 | 1018.5 |
| 20260506170715 | 56 | 269 | 4.0 | 9.0 | 0.00 | 0.00 | 0.00 | 36 | 1018.5 |
| 20260506170213 | 55 | 284 | 4.0 | 9.0 | 0.00 | 0.00 | 0.00 | 37 | 1018.6 |
| 20260506165503 | 55 | 295 | 4.0 | 14.0 | 0.00 | 0.00 | 0.00 | 38 | 1018.6 |
| 20260506165003 | 55 | 293 | 3.0 | 14.0 | 0.00 | 0.00 | 0.00 | 45 | 1018.7 |
| 20260506164503 | 54 | 317 | 2.0 | 8.0 | 0.00 | 0.00 | 0.00 | 38 | 1018.7 |
| 20260506164003 | 55 | 284 | 3.0 | 9.0 | 0.00 | 0.00 | 0.00 | 38 | 1018.6 |
| 20260506163503 | 55 | 301 | 3.0 | 10.0 | 0.00 | 0.00 | 0.00 | 36 | 1018.7 |
| 20260506163213 | 54 | 319 | 2.0 | 10.0 | 0.00 | 0.00 | 0.00 | 45 | 1018.7 |
| 20260506162503 | 53 | 264 | 3.0 | 9.0 | 0.00 | 0.00 | 0.00 | 39 | 1018.7 |
| 20260506162003 | 53 | 255 | 4.0 | 10.0 | 0.00 | 0.00 | 0.00 | 39 | 1018.8 |
| 20260506161503 | 53 | 261 | 4.0 | 10.0 | 0.00 | 0.00 | 0.00 | 37 | 1018.8 |
| 20260506161213 | 53 | 268 | 3.0 | 10.0 | 0.00 | 0.00 | 0.00 | 36 | 1018.8 |
| 20260506160503 | 53 | 308 | 3.0 | 11.0 | 0.00 | 0.00 | 0.00 | 41 | 1018.8 |
| 20260506160003 | 53 | 322 | 3.0 | 11.0 | 0.00 | 0.00 | 0.00 | 43 | 1018.7 |
| 20260506155503 | 53 | 286 | 4.0 | 14.0 | 0.00 | 0.00 | 0.00 | 39 | 1018.7 |
| 20260506155003 | 52 | 288 | 4.0 | 14.0 | 0.00 | 0.00 | 0.00 | 40 | 1018.6 |
| 20260506154503 | 52 | 313 | 3.0 | 9.0 | 0.00 | 0.00 | 0.00 | 40 | 1018.6 |
| 20260506154003 | 52 | 310 | 2.0 | 7.0 | 0.00 | 0.00 | 0.00 | 40 | 1018.6 |
| 20260506153503 | 52 | 311 | 2.0 | 9.0 | 0.00 | 0.00 | 0.00 | 40 | 1018.7 |
| 20260506153003 | 52 | 302 | 2.0 | 9.0 | 0.00 | 0.00 | 0.00 | 42 | 1018.8 |
| 20260506152503 | 52 | 280 | 2.0 | 9.0 | 0.00 | 0.00 | 0.00 | 44 | 1018.7 |
| 20260506152003 | 51 | 286 | 2.0 | 9.0 | 0.00 | 0.00 | 0.00 | 43 | 1018.7 |
| 20260506151503 | 51 | 320 | 2.0 | 8.0 | 0.00 | 0.00 | 0.00 | 39 | 1018.6 |
| 20260506151003 | 51 | 332 | 2.0 | 6.0 | 0.00 | 0.00 | 0.00 | 42 | 1018.6 |
| 20260506150504 | 51 | 309 | 3.0 | 10.0 | 0.00 | 0.00 | 0.00 | 42 | 1018.6 |
| 20260506150003 | 51 | 301 | 3.0 | 10.0 | 0.00 | 0.00 | 0.00 | 44 | 1018.7 |
| 20260506145503 | 50 | 310 | 2.0 | 7.0 | 0.00 | 0.00 | 0.00 | 42 | 1018.7 |
| 20260506145212 | 50 | 328 | 2.0 | 6.0 | 0.00 | 0.00 | 0.00 | 47 | 1018.7 |
| 20260506144503 | 49 | 333 | 2.0 | 6.0 | 0.00 | 0.00 | 0.00 | 44 | 1018.7 |
| 20260506144003 | 49 | 331 | 2.0 | 4.0 | 0.00 | 0.00 | 0.00 | 47 | 1018.7 |
| 20260506143713 | 49 | 299 | 2.0 | 6.0 | 0.00 | 0.00 | 0.00 | 46 | 1018.8 |
| 20260506143003 | 49 | 259 | 2.0 | 7.0 | 0.00 | 0.00 | 0.00 | 46 | 1018.8 |
| 20260506142503 | 49 | 273 | 2.0 | 7.0 | 0.00 | 0.00 | 0.00 | 47 | 1018.6 |
| 20260506142003 | 48 | 29 | 2.0 | 5.0 | 0.00 | 0.00 | 0.00 | 49 | 1018.6 |
| 20260506141503 | 48 | 29 | 2.0 | 5.0 | 0.00 | 0.00 | 0.00 | 51 | 1018.5 |
| 20260506141003 | 47 | 334 | 2.0 | 5.0 | 0.00 | 0.00 | 0.00 | 46 | 1018.6 |
| 20260506140504 | 47 | 293 | 2.0 | 5.0 | 0.00 | 0.00 | 0.00 | 49 | 1018.5 |
| 20260506140003 | 47 | 1 | 2.0 | 6.0 | 0.00 | 0.00 | 0.00 | 49 | 1018.5 |
| 20260506135503 | 46 | 29 | 2.0 | 6.0 | 0.00 | 0.00 | 0.00 | 49 | 1018.5 |
| 20260506135003 | 46 | 13 | 1.0 | 5.0 | 0.00 | 0.00 | 0.00 | 51 | 1018.4 |
| 20260506134713 | 46 | 359 | 2.0 | 5.0 | 0.00 | 0.00 | 0.00 | 50 | 1018.4 |
| 20260506134003 | 46 | 323 | 1.0 | 4.0 | 0.00 | 0.00 | 0.00 | 51 | 1018.3 |
| 20260506133504 | 45 | 301 | 1.0 | 4.0 | 0.00 | 0.00 | 0.00 | 54 | 1018.2 |
| 20260506133003 | 45 | 306 | 1.0 | 3.0 | 0.00 | 0.00 | 0.00 | 52 | 1018.2 |
| 20260506132503 | 45 | 322 | 1.0 | 3.0 | 0.00 | 0.00 | 0.00 | 54 | 1018.1 |
| 20260506132003 | 44 | 324 | 2.0 | 5.0 | 0.00 | 0.00 | 0.00 | 58 | 1018.0 |
| 20260506131503 | 44 | 317 | 1.0 | 5.0 | 0.00 | 0.00 | 0.00 | 59 | 1018.0 |
| 20260506131003 | 44 | 300 | 1.0 | 3.0 | 0.00 | 0.00 | 0.00 | 58 | 1018.0 |
| 20260506130503 | 43 | 300 | 1.0 | 3.0 | 0.00 | 0.00 | 0.00 | 59 | 1017.8 |
| 20260506130214 | 43 | 301 | 1.0 | 3.0 | 0.00 | 0.00 | 0.00 | 60 | 1017.8 |
| 20260506125713 | 43 | 302 | 1.0 | 3.0 | 0.00 | 0.00 | 0.00 | 60 | 1017.8 |
| 20260506125003 | 42 | 299 | 1.0 | 3.0 | 0.00 | 0.00 | 0.00 | 59 | 1017.8 |
| 20260506124503 | 42 | 302 | 1.0 | 4.0 | 0.00 | 0.00 | 0.00 | 60 | 1017.8 |
| 20260506124214 | 42 | 309 | 1.0 | 4.0 | 0.00 | 0.00 | 0.00 | 59 | 1017.8 |
| 20260506123504 | 41 | 326 | 1.0 | 3.0 | 0.00 | 0.00 | 0.00 | 62 | 1017.7 |
| 20260506123003 | 41 | 333 | 1.0 | 2.0 | 0.00 | 0.00 | 0.00 | 62 | 1017.6 |
| 20260506122503 | 40 | 333 | 1.0 | 2.0 | 0.00 | 0.00 | 0.00 | 63 | 1017.6 |
| 20260506122003 | 40 | 334 | 1.0 | 3.0 | 0.00 | 0.00 | 0.00 | 64 | 1017.3 |
| 20260506121503 | 39 | 334 | 0.0 | 4.0 | 0.00 | 0.00 | 0.00 | 64 | 1017.4 |
| 20260506121003 | 39 | 333 | 0.0 | 4.0 | 0.00 | 0.00 | 0.00 | 67 | 1017.2 |
| 20260506120503 | 38 | 334 | 0.0 | 1.0 | 0.00 | 0.00 | 0.00 | 67 | 1017.1 |
| 20260506120003 | 38 | 334 | 0.0 | 1.0 | 0.00 | 0.00 | 0.00 | 68 | 1016.9 |
| 20260506115503 | 38 | 0 | 0.0 | 1.0 | 0.00 | 0.00 | 0.00 | 68 | 1017.0 |
| 20260506115003 | 38 | 334 | 0.0 | 1.0 | 0.00 | 0.00 | 0.00 | 68 | 1017.0 |
| 20260506114503 | 38 | 334 | 0.0 | 1.0 | 0.00 | 0.00 | 0.00 | 68 | 1016.9 |
| 20260506114003 | 38 | 334 | 0.0 | 1.0 | 0.00 | 0.00 | 0.00 | 68 | 1016.9 |
| 20260506113503 | 38 | 0 | 0.0 | 0.0 | 0.00 | 0.00 | 0.00 | 66 | 1016.9 |
| 20260506113003 | 38 | 0 | 0.0 | 0.0 | 0.00 | 0.00 | 0.00 | 66 | 1016.7 |
| 20260506112503 | 38 | 0 | 0.0 | 0.0 | 0.00 | 0.00 | 0.00 | 66 | 1016.7 |
| 20260506112003 | 38 | 0 | 0.0 | 0.0 | 0.00 | 0.00 | 0.00 | 66 | 1016.5 |
| 20260506111003 | 39 | 334 | 0.0 | 1.0 | 0.00 | 0.00 | 0.00 | 65 | 1016.7 |
| 20260506110503 | 39 | 334 | 0.0 | 1.0 | 0.00 | 0.00 | 0.00 | 65 | 1016.6 |
| 20260506110003 | 39 | 0 | 0.0 | 0.0 | 0.00 | 0.00 | 0.00 | 65 | 1016.5 |
| 20260506105714 | 39 | 0 | 0.0 | 0.0 | 0.00 | 0.00 | 0.00 | 64 | 1016.5 |
| 20260506105003 | 40 | 0 | 0.0 | 0.0 | 0.00 | 0.00 | 0.00 | 64 | 1016.6 |
| 20260506104503 | 40 | 0 | 0.0 | 0.0 | 0.00 | 0.00 | 0.00 | 63 | 1016.7 |
| 20260506104003 | 40 | 0 | 0.0 | 0.0 | 0.00 | 0.00 | 0.00 | 61 | 1016.6 |
| 20260506103503 | 40 | 0 | 0.0 | 1.0 | 0.00 | 0.00 | 0.00 | 60 | 1016.6 |
| 20260506103003 | 41 | 334 | 0.0 | 1.0 | 0.00 | 0.00 | 0.00 | 60 | 1016.5 |
| 20260506102503 | 41 | 0 | 0.0 | 1.0 | 0.00 | 0.00 | 0.00 | 59 | 1016.6 |
| 20260506102003 | 41 | 334 | 0.0 | 2.0 | 0.00 | 0.00 | 0.00 | 59 | 1016.5 |
| 20260506101714 | 41 | 334 | 0.0 | 2.0 | 0.00 | 0.00 | 0.00 | 60 | 1016.6 |
| 20260506101213 | 41 | 334 | 0.0 | 2.0 | 0.00 | 0.00 | 0.00 | 58 | 1016.5 |
| 20260506100503 | 42 | 334 | 0.0 | 1.0 | 0.00 | 0.00 | 0.00 | 57 | 1016.4 |
| 20260506100004 | 42 | 334 | 0.0 | 1.0 | 0.00 | 0.00 | 0.00 | 58 | 1016.4 |
| 20260506095503 | 42 | 334 | 0.0 | 1.0 | 0.00 | 0.00 | 0.00 | 57 | 1016.3 |
| 20260506095003 | 42 | 333 | 0.0 | 1.0 | 0.00 | 0.00 | 0.00 | 56 | 1016.3 |
| 20260506094503 | 42 | 334 | 0.0 | 1.0 | 0.00 | 0.00 | 0.00 | 57 | 1016.3 |
| 20260506094003 | 42 | 334 | 0.0 | 1.0 | 0.00 | 0.00 | 0.00 | 56 | 1016.3 |
| 20260506093713 | 43 | 334 | 0.0 | 1.0 | 0.00 | 0.00 | 0.00 | 58 | 1016.3 |
| 20260506093003 | 43 | 333 | 0.0 | 1.0 | 0.00 | 0.00 | 0.00 | 55 | 1016.3 |
| 20260506092714 | 43 | 335 | 0.0 | 4.0 | 0.00 | 0.00 | 0.00 | 55 | 1016.1 |
| 20260506092003 | 43 | 336 | 0.0 | 4.0 | 0.00 | 0.00 | 0.00 | 54 | 1016.0 |
| 20260506091503 | 44 | 345 | 0.0 | 1.0 | 0.00 | 0.00 | 0.00 | 56 | 1015.9 |
| 20260506091003 | 44 | 345 | 0.0 | 1.0 | 0.00 | 0.00 | 0.00 | 55 | 1015.9 |
| 20260506090503 | 44 | 345 | 0.0 | 1.0 | 0.00 | 0.00 | 0.00 | 56 | 1015.9 |
| 20260506090003 | 44 | 345 | 0.0 | 1.0 | 0.00 | 0.00 | 0.00 | 53 | 1015.9 |
| 20260506085713 | 44 | 345 | 0.0 | 1.0 | 0.00 | 0.00 | 0.00 | 53 | 1015.8 |
| 20260506085003 | 44 | 345 | 0.0 | 3.0 | 0.00 | 0.00 | 0.00 | 52 | 1015.8 |
| 20260506084003 | 45 | 346 | 0.0 | 1.0 | 0.00 | 0.00 | 0.00 | 54 | 1015.7 |
| 20260506083713 | 45 | 346 | 0.0 | 1.0 | 0.00 | 0.00 | 0.00 | 55 | 1015.7 |
| 20260506083003 | 45 | 346 | 0.0 | 2.0 | 0.00 | 0.00 | 0.00 | 53 | 1015.6 |
| 20260506082504 | 45 | 346 | 0.0 | 2.0 | 0.00 | 0.00 | 0.00 | 52 | 1015.6 |
| 20260506082003 | 45 | 0 | 0.0 | 1.0 | 0.00 | 0.00 | 0.00 | 51 | 1015.6 |
| 20260506081503 | 45 | 346 | 0.0 | 1.0 | 0.00 | 0.00 | 0.00 | 51 | 1015.5 |
| 20260506081214 | 45 | 346 | 0.0 | 2.0 | 0.00 | 0.00 | 0.00 | 50 | 1015.4 |
| 20260506080503 | 46 | 346 | 0.0 | 2.0 | 0.00 | 0.00 | 0.00 | 51 | 1015.5 |
| 20260506073503 | 46 | 0 | 0.0 | 0.0 | 0.00 | 0.01 | 0.00 | 47 | 1015.1 |
| 20260506073003 | 46 | 0 | 0.0 | 0.0 | 0.00 | 0.01 | 0.00 | 46 | 1015.1 |
| 20260506072504 | 46 | 0 | 0.0 | 0.0 | 0.00 | 0.01 | 0.00 | 46 | 1015.1 |
| 20260506072003 | 46 | 0 | 0.0 | 0.0 | 0.00 | 0.01 | 0.00 | 45 | 1015.1 |
| 20260506071503 | 47 | 351 | 0.0 | 1.0 | 0.00 | 0.01 | 0.00 | 45 | 1015.1 |
| 20260506071003 | 47 | 351 | 0.0 | 2.0 | 0.00 | 0.01 | 0.00 | 45 | 1015.0 |
| 20260506070503 | 47 | 352 | 1.0 | 3.0 | 0.00 | 0.01 | 0.00 | 45 | 1015.1 |
| 20260506062003 | 48 | 27 | 1.0 | 4.0 | 0.00 | 0.02 | 0.00 | 43 | 1015.1 |
| 20260506061503 | 48 | 29 | 1.0 | 5.0 | 0.00 | 0.02 | 0.00 | 44 | 1015.1 |
| 20260506061003 | 48 | 25 | 1.0 | 5.0 | 0.00 | 0.02 | 0.00 | 43 | 1015.0 |